EN

Hourly Weather Ossining

Today, 18 May, Tuesday

Time Temperature Precipitation Wind Pressure Humidity
00:00 +14°C° 0 mm 1 mps 764 mmHg 74%
01:00 +14°C° 0 mm 1 mps 764 mmHg 74%
02:00 +14°C° 0 mm 1 mps 764 mmHg 74%
03:00 +14°C° 0 mm 1 mps 763 mmHg 75%
04:00 +14°C° 0 mm 1 mps 763 mmHg 75%
05:00 +15°C° 0 mm 1 mps 764 mmHg 70%
06:00 +16°C° 0 mm 2 mps 764 mmHg 65%
07:00 +17°C° 0 mm 2 mps 764 mmHg 60%
08:00 +19°C° 0 mm 3 mps 764 mmHg 55%
09:00 +21°C° 0 mm 3 mps 764 mmHg 50%
10:00 +24°C° 0 mm 3 mps 764 mmHg 45%
11:00 +25°C° 0 mm 3 mps 763 mmHg 44%
12:00 +25°C° 0 mm 3 mps 763 mmHg 43%
13:00 +26°C° 0 mm 3 mps 762 mmHg 42%
14:00 +25°C° 0 mm 3 mps 762 mmHg 45%
15:00 +25°C° 0 mm 3 mps 762 mmHg 47%
16:00 +24°C° 0 mm 3 mps 762 mmHg 50%
17:00 +23°C° 0 mm 2 mps 762 mmHg 55%
18:00 +21°C° 0 mm 2 mps 762 mmHg 60%
19:00 +20°C° 0 mm 2 mps 762 mmHg 64%
20:00 +20°C° 0 mm 1 mps 762 mmHg 68%
21:00 +19°C° 0 mm 1 mps 763 mmHg 72%
22:00 +18°C° 0 mm 1 mps 763 mmHg 76%
23:00 +16°C° 0 mm 1 mps 763 mmHg 79%

Tomorrow, 19 May, Wednesday

Time Temperature Precipitation Wind Pressure Humidity
00:00 +16°C° 0 mm 1 mps 763 mmHg 81%
01:00 +15°C° 0 mm 1 mps 763 mmHg 83%
02:00 +15°C° 0 mm 1 mps 763 mmHg 84%
03:00 +15°C° 0 mm 1 mps 763 mmHg 85%
04:00 +14°C° 0 mm 1 mps 763 mmHg 86%
05:00 +16°C° 0 mm 1 mps 763 mmHg 80%
06:00 +18°C° 0 mm 1 mps 764 mmHg 73%
07:00 +20°C° 0 mm 1 mps 764 mmHg 67%
08:00 +22°C° 0 mm 1 mps 764 mmHg 60%
09:00 +24°C° 0 mm 2 mps 764 mmHg 52%
10:00 +26°C° 0 mm 2 mps 764 mmHg 45%
11:00 +27°C° 0 mm 2 mps 764 mmHg 42%
12:00 +28°C° 0 mm 2 mps 764 mmHg 39%
13:00 +29°C° 0 mm 2 mps 763 mmHg 36%
14:00 +29°C° 0 mm 3 mps 763 mmHg 36%
15:00 +29°C° 0 mm 3 mps 763 mmHg 36%
16:00 +29°C° 0 mm 3 mps 763 mmHg 36%
17:00 +27°C° 0 mm 2 mps 763 mmHg 45%
18:00 +25°C° 0 mm 2 mps 763 mmHg 53%
19:00 +23°C° 0 mm 1 mps 763 mmHg 62%
20:00 +22°C° 0 mm 1 mps 763 mmHg 64%
21:00 +22°C° 0 mm 1 mps 764 mmHg 66%
22:00 +21°C° 0 mm 1 mps 764 mmHg 67%
23:00 +20°C° 0 mm 1 mps 764 mmHg 70%

Day after tomorrow, 20 May, Thursday

Time Temperature Precipitation Wind Pressure Humidity
00:00 +19°C° 0 mm 1 mps 764 mmHg 73%
01:00 +19°C° 0 mm 1 mps 764 mmHg 76%
02:00 +18°C° 0 mm 1 mps 764 mmHg 79%
03:00 +18°C° 0 mm 1 mps 765 mmHg 81%
04:00 +18°C° 0 mm 1 mps 765 mmHg 84%
05:00 +19°C° 0 mm 1 mps 765 mmHg 80%
06:00 +20°C° 0 mm 1 mps 766 mmHg 76%
07:00 +21°C° 0 mm 1 mps 766 mmHg 73%
08:00 +23°C° 0 mm 1 mps 766 mmHg 67%
09:00 +23°C° 0 mm 0 mps 766 mmHg 62%
10:00 +24°C° 0 mm 0 mps 766 mmHg 56%
11:00 +28°C° 0 mm 1 mps 766 mmHg 51%
12:00 +29°C° 0 mm 1 mps 766 mmHg 47%
13:00 +30°C° 0 mm 1 mps 765 mmHg 42%
14:00 +30°C° 0 mm 2 mps 765 mmHg 42%
15:00 +30°C° 0 mm 2 mps 765 mmHg 41%
16:00 +29°C° 0 mm 3 mps 764 mmHg 41%
17:00 +27°C° 0 mm 2 mps 765 mmHg 49%
18:00 +24°C° 0 mm 2 mps 765 mmHg 56%
19:00 +21°C° 0 mm 2 mps 766 mmHg 64%
20:00 +20°C° 0 mm 2 mps 766 mmHg 65%
21:00 +19°C° 0 mm 2 mps 766 mmHg 66%
22:00 +20°C° 0 mm 1 mps 767 mmHg 67%
23:00 +19°C° 0 mm 1 mps 767 mmHg 69%

21 May, Friday

Time Temperature Precipitation Wind Pressure Humidity
00:00 +19°C° 0 mm 1 mps 766 mmHg 71%
01:00 +18°C° 0 mm 1 mps 766 mmHg 73%
02:00 +18°C° 0 mm 1 mps 766 mmHg 74%
03:00 +18°C° 0 mm 1 mps 766 mmHg 75%
04:00 +18°C° 0 mm 1 mps 766 mmHg 77%
05:00 +16°C° 0.1 mm 1 mps 767 mmHg 79%
06:00 +16°C° 0.1 mm 1 mps 767 mmHg 82%
07:00 +16°C° 0.1 mm 1 mps 767 mmHg 85%
08:00 +16°C° 0.1 mm 1 mps 767 mmHg 87%
09:00 +16°C° 0.1 mm 1 mps 767 mmHg 89%
10:00 +18°C° 0.1 mm 1 mps 767 mmHg 91%
11:00 +18°C° 0 mm 1 mps 767 mmHg 91%
12:00 +18°C° 0 mm 1 mps 766 mmHg 90%
13:00 +18°C° 0 mm 1 mps 766 mmHg 90%
14:00 +18°C° 0.3 mm 1 mps 766 mmHg 92%
15:00 +18°C° 0.3 mm 1 mps 765 mmHg 93%
16:00 +18°C° 0.3 mm 1 mps 765 mmHg 95%
17:00 +18°C° 0.4 mm 1 mps 765 mmHg 96%
18:00 +16°C° 0.4 mm 1 mps 765 mmHg 97%
19:00 +16°C° 0.4 mm 1 mps 765 mmHg 98%
20:00 +16°C° 0.1 mm 1 mps 764 mmHg 98%
21:00 +16°C° 0.1 mm 1 mps 764 mmHg 98%
22:00 +16°C° 0.1 mm 1 mps 764 mmHg 98%
23:00 +16°C° 1.4 mm 1 mps 763 mmHg 98%

22 May, Saturday

Time Temperature Precipitation Wind Pressure Humidity
00:00 +16°C° 1.4 mm 2 mps 763 mmHg 98%
01:00 +16°C° 1.4 mm 2 mps 762 mmHg 99%
02:00 +16°C° 0.6 mm 2 mps 762 mmHg 99%
03:00 +16°C° 0.6 mm 2 mps 761 mmHg 99%
04:00 +17°C° 0.6 mm 2 mps 761 mmHg 99%
05:00 +17°C° 0.2 mm 2 mps 760 mmHg 98%
06:00 +19°C° 0.2 mm 1 mps 760 mmHg 97%
07:00 +19°C° 0.2 mm 1 mps 760 mmHg 96%
08:00 +18°C° 0.1 mm 1 mps 761 mmHg 97%
09:00 +19°C° 0.1 mm 1 mps 761 mmHg 97%
10:00 +19°C° 0.1 mm 1 mps 761 mmHg 96%
11:00 +19°C° 0.5 mm 1 mps 760 mmHg 96%
12:00 +19°C° 0.5 mm 1 mps 760 mmHg 96%
13:00 +20°C° 0.5 mm 1 mps 760 mmHg 97%
14:00 +19°C° 0.3 mm 1 mps 759 mmHg 97%
15:00 +19°C° 0.3 mm 1 mps 759 mmHg 97%
16:00 +18°C° 0.3 mm 2 mps 759 mmHg 97%
17:00 +18°C° 0.1 mm 1 mps 759 mmHg 97%
18:00 +18°C° 0.1 mm 1 mps 759 mmHg 97%
19:00 +18°C° 0.1 mm 1 mps 759 mmHg 98%
20:00 +18°C° 0 mm 1 mps 759 mmHg 98%
21:00 +18°C° 0 mm 1 mps 759 mmHg 98%
22:00 +16°C° 0 mm 1 mps 758 mmHg 98%
23:00 +16°C° 0 mm 1 mps 758 mmHg 98%

23 May, Sunday

Time Temperature Precipitation Wind Pressure Humidity
00:00 +16°C° 0 mm 1 mps 758 mmHg 98%
01:00 +16°C° 0 mm 1 mps 758 mmHg 98%
02:00 +16°C° 0 mm 1 mps 757 mmHg 98%
03:00 +16°C° 0 mm 1 mps 757 mmHg 98%
04:00 +15°C° 0 mm 0 mps 757 mmHg 98%
05:00 +18°C° 0 mm 1 mps 757 mmHg 98%
06:00 +18°C° 0 mm 1 mps 757 mmHg 97%
07:00 +19°C° 0 mm 1 mps 756 mmHg 96%
08:00 +20°C° 0 mm 1 mps 756 mmHg 89%
09:00 +21°C° 0 mm 1 mps 756 mmHg 82%
10:00 +23°C° 0 mm 1 mps 756 mmHg 75%
11:00 +25°C° 0 mm 1 mps 755 mmHg 67%
12:00 +26°C° 0 mm 1 mps 755 mmHg 59%
13:00 +28°C° 0 mm 1 mps 754 mmHg 51%
14:00 +27°C° 0.1 mm 1 mps 754 mmHg 58%
15:00 +26°C° 0.1 mm 1 mps 753 mmHg 65%
16:00 +25°C° 0.1 mm 1 mps 753 mmHg 72%
17:00 +24°C° 2.4 mm 1 mps 753 mmHg 80%
18:00 +22°C° 2.4 mm 1 mps 754 mmHg 88%
19:00 +21°C° 2.4 mm 1 mps 754 mmHg 97%
20:00 +20°C° 0.5 mm 1 mps 754 mmHg 97%
21:00 +19°C° 0.5 mm 2 mps 754 mmHg 96%
22:00 +18°C° 0.5 mm 3 mps 754 mmHg 96%
23:00 +16°C° 0.1 mm 3 mps 754 mmHg 95%
Show more

We Need Your Consent

Meteoprog and our Service Providers may store and access personal data such as cookies, device identifiers or other similar technologies on your device and process such data to personalise content and ads, as well as provide social media features and to analyse the traffic.

  • Store and/or access information on your device

    Cookies, device identifiers or other information can be stored or accessed on your device for the purposes indicated above.

  • Personalised ads and content, ad and content measurement, audience insights, and products development

    Ads and content can be personalised based on a profile. More data can be added to better personalise ads and content. Ad and content performance can be measured. Insights about the audience who saw the ads and content can be derived. Such data can be used to develop or improve user’s experience, systems and software.

By clicking ‘I Agree’ you will allow the use of indicated cookies, device identifiers, web beacons or other similar technologies. Your settings can be changed in the browser on your device.

For certain purposes, legitimate interests may be relied on, rather than consent. You can read more about this in our Privacy and Cookie Policy.